CW4784 Weather Reports


time (UTC)temp
F
wind
direction
speed
knots
gust
knots
rain 1hr
in
rain 24hr
in
rain mn
in
humidity
%
barometer
mb
20260507090504 32 360 0.9 2.6 0.00 0.16 0.00 75 1020.6
20260507090015 33 360 0.9 3.5 0.00 0.16 0.00 75 1020.5
20260507085505 33 360 1.7 5.2 0.00 0.16 0.00 77 1020.7
20260507085007 34 360 1.7 5.2 0.00 0.16 0.00 79 1020.6
20260507084520 32 360 3.5 5.2 0.00 0.16 0.00 83 1020.6
20260507084006 31 360 2.6 5.2 0.00 0.16 0.00 84 1020.5
20260507083506 30 360 2.6 5.2 0.00 0.16 0.00 84 1020.5
20260507083024 29 360 3.5 5.2 0.00 0.16 0.00 84 1020.6
20260507082512 29 360 2.6 5.2 0.00 0.16 0.00 83 1020.7
20260507082010 30 360 2.6 5.2 0.00 0.16 0.00 83 1020.7
20260507081523 31 360 2.6 5.2 0.00 0.16 0.00 83 1020.7
20260507081007 31 360 2.6 7.0 0.00 0.16 0.00 84 1020.7
20260507080508 30 360 3.5 7.0 0.00 0.17 0.00 83 1020.8
20260507080024 29 360 3.5 5.2 0.00 0.17 0.00 83 1020.8
20260507075510 29 360 1.7 5.2 0.00 0.17 0.00 83 1020.9
20260507075010 30 360 2.6 5.2 0.00 0.17 0.00 84 1020.9
20260507074531 29 360 2.6 4.3 0.00 0.17 0.00 86 1021.1
20260507074007 29 360 1.7 4.3 0.00 0.17 0.00 86 1021.0
20260507073508 28 360 2.6 4.3 0.00 0.17 0.00 86 1021.1
20260507073020 28 360 3.5 4.3 0.00 0.18 0.00 87 1021.1
20260507072509 28 360 1.7 3.5 0.00 0.18 0.00 87 1021.3
20260507072002 29 360 1.7 3.5 0.00 0.18 0.00 87 1021.1
20260507071505 29 360 1.7 2.6 0.00 0.18 0.00 87 1021.2
20260507071003 29 360 0.0 2.6 0.00 0.18 0.00 87 1021.1
20260507070504 29 360 1.7 3.5 0.00 0.18 0.00 87 1021.3
20260507070010 28 360 1.7 3.5 0.00 0.18 0.00 86 1021.3
20260507065507 28 360 1.7 3.5 0.00 0.18 0.00 86 1021.3
20260507065005 29 360 0.9 2.6 0.00 0.18 0.00 86 1021.3
20260507064508 30 360 0.9 3.5 0.00 0.18 0.00 88 1021.3
20260507064008 30 360 1.7 4.3 0.00 0.18 0.00 88 1021.4
20260507063504 29 360 2.6 4.3 0.00 0.18 0.00 88 1021.4
20260507063011 28 360 1.7 3.5 0.00 0.18 0.00 88 1021.4
20260507062508 28 360 1.7 3.5 0.00 0.19 0.00 89 1021.4
20260507062003 28 360 1.7 3.5 0.00 0.19 0.00 89 1021.4
20260507061513 28 360 1.7 4.3 0.00 0.19 0.00 89 1021.4
20260507061006 28 360 2.6 4.3 0.00 0.19 0.00 89 1021.3
20260507060507 28 360 2.6 4.3 0.00 0.19 0.00 90 1021.3
20260507060006 28 360 1.7 4.3 0.00 0.20 0.00 90 1021.3
20260507055504 28 360 2.6 4.3 0.00 0.20 0.20 89 1021.3
20260507055004 28 360 2.6 3.5 0.00 0.20 0.20 89 1021.2
20260507054508 28 360 0.9 2.6 0.00 0.20 0.20 89 1021.1
20260507054004 28 360 1.7 2.6 0.00 0.21 0.20 89 1021.1
20260507053504 28 360 1.7 3.5 0.00 0.21 0.20 89 1021.1
20260507053010 28 360 0.9 3.5 0.00 0.21 0.20 89 1021.1
20260507052509 28 360 0.0 2.6 0.00 0.21 0.20 89 1021.0
20260507052004 28 360 0.0 2.6 0.00 0.22 0.20 89 1021.0
20260507051510 28 360 0.9 2.6 0.00 0.22 0.20 89 1020.9
20260507051007 28 360 0.0 0.9 0.00 0.22 0.20 89 1020.9
20260507050503 28 360 0.0 0.9 0.00 0.23 0.20 88 1020.9
20260507050020 28 360 0.0 0.9 0.00 0.23 0.20 88 1021.0
20260507045504 28 360 0.0 0.0 0.00 0.24 0.20 88 1021.0
20260507045007 29 360 0.0 1.7 0.00 0.24 0.20 89 1021.1
20260507044510 29 360 0.0 1.7 0.00 0.25 0.20 89 1021.0
20260507044004 29 360 0.0 1.7 0.00 0.25 0.20 89 1020.9
20260507043503 29 360 0.0 2.6 0.00 0.25 0.20 89 1020.8
20260507043008 29 360 0.0 2.6 0.00 0.25 0.20 89 1020.9
20260507042507 29 360 0.9 3.5 0.00 0.25 0.20 89 1020.9
20260507042004 29 360 1.7 3.5 0.00 0.26 0.20 89 1020.9
20260507041518 29 360 0.0 0.0 0.00 0.26 0.20 89 1020.8
20260507041005 29 360 0.0 2.6 0.00 0.26 0.20 89 1020.9
20260507040507 29 360 0.0 2.6 0.00 0.26 0.20 89 1020.9
20260507040017 28 360 1.7 3.5 0.00 0.26 0.20 88 1020.8
20260507035510 28 360 1.7 3.5 0.00 0.27 0.20 88 1020.8
20260507035010 29 360 1.7 3.5 0.00 0.27 0.20 87 1020.8
20260507034514 29 360 1.7 3.5 0.00 0.27 0.20 87 1020.9
20260507034006 29 360 1.7 4.3 0.00 0.27 0.20 87 1020.9
20260507033506 30 360 2.6 4.3 0.00 0.27 0.20 87 1020.9
20260507033012 30 360 2.6 4.3 0.00 0.27 0.20 87 1021.0
20260507032506 30 360 1.7 3.5 0.00 0.27 0.20 87 1020.9
20260507032006 30 360 1.7 3.5 0.00 0.27 0.20 87 1020.8
20260507031513 30 360 1.7 3.5 0.00 0.28 0.20 87 1020.9
20260507031010 30 360 1.7 3.5 0.00 0.28 0.20 86 1020.9
20260507030506 30 360 1.7 3.5 0.00 0.28 0.20 86 1020.9
20260507030017 30 360 1.7 4.3 0.00 0.28 0.20 86 1020.9
20260507025508 31 360 2.6 5.2 0.00 0.28 0.20 86 1020.9
20260507025007 31 360 1.7 5.2 0.00 0.28 0.20 86 1021.0
20260507024511 31 360 2.6 5.2 0.00 0.28 0.20 86 1020.9
20260507024009 31 360 2.6 4.3 0.00 0.28 0.20 86 1020.9
20260507023506 31 360 2.6 4.3 0.00 0.28 0.20 85 1021.0
20260507023020 31 360 2.6 7.0 0.00 0.28 0.20 85 1021.0
20260507022512 31 360 2.6 7.0 0.00 0.28 0.20 85 1020.9
20260507022011 32 360 3.5 7.0 0.00 0.28 0.20 84 1020.9
20260507021518 32 360 4.3 5.2 0.00 0.28 0.20 84 1020.9
20260507021007 32 360 3.5 5.2 0.00 0.28 0.20 83 1020.9
20260507020506 32 360 2.6 7.0 0.00 0.28 0.20 82 1020.9
20260507020014 33 360 4.3 7.0 0.00 0.28 0.20 82 1020.9
20260507015507 33 360 4.3 7.0 0.00 0.28 0.20 82 1020.9
20260507015007 33 360 2.6 4.3 0.00 0.28 0.20 81 1020.9
20260507014515 34 360 2.6 4.3 0.00 0.28 0.20 80 1020.9
20260507014007 34 360 2.6 6.1 0.00 0.28 0.20 79 1020.9
20260507013508 35 13 2.6 7.0 0.00 0.28 0.20 79 1020.8
20260507013022 35 360 3.5 7.0 0.00 0.28 0.20 79 1020.8
20260507012506 36 360 3.5 7.8 0.00 0.28 0.20 78 1020.9
20260507012007 36 360 4.3 10.4 0.00 0.28 0.20 78 1020.9
20260507011524 36 360 5.2 10.4 0.00 0.28 0.20 78 1020.9
20260507011006 36 13 7.8 10.4 0.00 0.28 0.20 78 1020.9
20260507010511 36 12 7.8 10.4 0.00 0.28 0.20 78 1021.0
20260507010033 36 13 7.8 12.2 0.00 0.28 0.20 78 1021.0
20260507005508 37 13 8.7 12.2 0.00 0.28 0.20 78 1021.0
20260507005011 37 14 7.8 10.4 0.00 0.28 0.20 78 1021.1
20260507004514 37 16 7.0 10.4 0.00 0.28 0.20 78 1020.9
20260507004006 37 360 7.0 11.3 0.00 0.28 0.20 78 1020.8
20260507003507 37 360 8.7 12.2 0.00 0.28 0.20 78 1020.9
20260507003002 38 360 9.6 12.2 0.00 0.28 0.20 77 1020.9
20260507002502 39 12 8.7 11.3 0.00 0.28 0.20 75 1020.8
20260507002003 40 360 7.0 10.4 0.00 0.28 0.20 72 1020.8
20260507001504 40 360 4.3 7.0 0.00 0.28 0.20 72 1020.9
20260507001003 40 360 2.6 6.1 0.00 0.28 0.20 74 1021.0
20260507000503 39 15 2.6 4.3 0.00 0.29 0.20 74 1021.1
20260507000008 38 16 1.7 4.3 0.00 0.30 0.20 72 1020.9
20260506235504 39 16 1.7 4.3 0.00 0.31 0.20 72 1020.9
20260506235004 38 15 0.9 3.5 0.00 0.32 0.20 72 1020.9
20260506234513 39 17 1.7 4.3 0.00 0.34 0.20 73 1020.9
20260506234007 39 15 1.7 4.3 0.00 0.34 0.20 69 1020.9
20260506233504 41 16 0.9 3.5 0.00 0.35 0.20 73 1020.9
20260506233010 41 360 0.0 5.2 0.00 0.36 0.20 74 1020.9
20260506232502 41 360 1.7 5.2 0.00 0.36 0.20 72 1020.9
20260506232002 40 360 2.6 5.2 0.00 0.36 0.20 69 1020.6
20260506231508 41 360 0.0 7.8 0.00 0.36 0.20 73 1020.6
20260506231004 42 360 1.7 7.8 0.00 0.36 0.20 74 1020.5
20260506230502 41 360 2.6 7.0 0.00 0.36 0.20 75 1020.4
20260506230005 41 360 2.6 7.0 0.00 0.36 0.20 79 1020.5
20260506225504 40 16 3.5 8.7 0.00 0.36 0.20 79 1020.5
20260506225005 40 9 4.3 8.7 0.00 0.36 0.20 81 1020.5
20260506224516 39 360 4.3 8.7 0.00 0.36 0.20 82 1020.5
20260506224004 38 360 5.2 7.8 0.00 0.37 0.20 81 1020.6
20260506223506 39 360 2.6 7.8 0.00 0.37 0.20 81 1020.5
20260506223012 38 360 4.3 8.7 0.00 0.37 0.20 81 1020.5
20260506222504 39 18 4.3 9.6 0.00 0.37 0.20 79 1020.6
20260506222003 40 15 7.0 9.6 0.00 0.37 0.20 80 1020.7
20260506221512 40 17 5.2 9.6 0.00 0.37 0.20 83 1020.7
20260506221005 38 16 6.1 8.7 0.00 0.37 0.20 83 1020.6
20260506220508 38 16 5.2 9.6 0.00 0.37 0.20 84 1020.5
20260506220028 37 16 5.2 9.6 0.00 0.37 0.20 84 1020.4
20260506215502 37 15 3.5 9.6 0.00 0.37 0.20 85 1020.7
20260506215003 37 16 7.0 9.6 0.00 0.37 0.20 85 1020.6
20260506214506 36 16 4.3 9.6 0.00 0.37 0.20 85 1020.5
20260506214005 37 16 7.0 9.6 0.00 0.37 0.20 85 1020.6
20260506213505 37 15 5.2 9.6 0.00 0.37 0.20 87 1020.6
20260506213011 36 16 5.2 10.4 0.00 0.37 0.20 87 1020.6
20260506212504 36 16 7.0 10.4 0.01 0.37 0.20 87 1020.7
20260506212006 35 5 7.0 10.4 0.01 0.37 0.20 87 1020.6
20260506211517 35 16 6.1 10.4 0.02 0.37 0.20 87 1020.9
20260506211009 35 16 6.1 9.6 0.03 0.37 0.20 88 1021.0
20260506210506 35 17 7.0 8.7 0.03 0.37 0.20 88 1021.1
20260506210008 35 16 5.2 8.7 0.04 0.37 0.20 88 1021.3
20260506205507 35 16 4.3 8.7 0.05 0.37 0.20 89 1021.1
20260506205008 35 16 5.2 10.4 0.06 0.37 0.20 90 1020.9
20260506204516 34 16 7.0 11.3 0.06 0.37 0.20 90 1020.7
20260506204004 34 5 7.8 11.3 0.06 0.37 0.20 90 1020.4
20260506203510 34 5 7.0 10.4 0.06 0.37 0.20 90 1020.4
20260506203008 34 16 6.1 10.4 0.06 0.37 0.20 91 1020.4
20260506202503 34 5 7.0 11.3 0.05 0.36 0.19 91 1020.4
20260506202004 34 16 7.8 11.3 0.05 0.36 0.19 92 1020.4
20260506201514 34 5 6.1 7.8 0.04 0.35 0.18 92 1020.5
20260506201009 34 16 4.3 7.0 0.03 0.34 0.17 93 1020.6
20260506200505 34 360 3.5 6.1 0.03 0.34 0.17 93 1020.7
20260506200017 33 16 0.0 0.9 0.02 0.33 0.16 93 1020.8
20260506195503 33 16 0.0 0.9 0.01 0.32 0.15 93 1020.6
20260506195007 32 16 0.0 4.3 0.00 0.31 0.14 93 1020.6
20260506194514 32 16 0.0 4.3 0.00 0.31 0.14 93 1020.6
20260506194011 31 16 1.7 7.0 0.00 0.31 0.14 93 1020.7
20260506193506 31 16 2.6 7.0 0.00 0.31 0.14 93 1020.8
20260506193010 31 16 3.5 7.8 0.00 0.31 0.14 93 1021.1
20260506192507 31 16 3.5 7.8 0.00 0.31 0.14 93 1020.9
20260506192008 31 16 4.3 7.8 0.00 0.31 0.14 93 1020.8
20260506191510 31 16 5.2 8.7 0.00 0.31 0.14 93 1020.6
20260506191004 31 16 5.2 8.7 0.00 0.31 0.14 93 1020.4
20260506190505 31 17 6.1 8.7 0.00 0.31 0.14 93 1020.3
20260506190012 31 360 4.3 7.0 0.00 0.31 0.14 93 1020.4
20260506185507 31 360 3.5 7.0 0.00 0.31 0.14 93 1020.6
20260506185006 31 360 3.5 8.7 0.00 0.31 0.14 93 1020.6
20260506184513 31 360 5.2 9.6 0.00 0.31 0.14 93 1020.5
20260506184006 31 360 6.1 9.6 0.00 0.31 0.14 93 1020.2
20260506183508 31 360 5.2 11.3 0.00 0.31 0.14 93 1020.1
20260506183015 31 360 7.8 11.3 0.00 0.31 0.14 93 1020.3
20260506182507 31 360 7.8 12.2 0.01 0.31 0.14 93 1020.4
20260506182007 31 360 7.0 13.9 0.01 0.31 0.14 93 1020.2
20260506181513 31 360 8.7 13.9 0.01 0.31 0.14 93 1020.2
20260506181008 31 360 7.0 12.2 0.01 0.31 0.14 92 1020.2
20260506180507 31 360 8.7 13.0 0.01 0.31 0.14 92 1020.3
20260506180005 31 360 8.7 13.9 0.02 0.31 0.14 92 1020.3
20260506175504 31 360 9.6 13.9 0.02 0.31 0.14 92 1020.1
20260506175004 32 360 9.6 15.6 0.02 0.31 0.14 92 1020.1
20260506174503 32 360 10.4 15.6 0.02 0.31 0.14 92 1020.2
20260506174003 32 360 10.4 15.6 0.03 0.31 0.14 92 1020.2
20260506173504 32 360 11.3 15.6 0.03 0.31 0.14 92 1020.2
20260506173004 32 360 8.7 15.6 0.03 0.31 0.14 92 1020.2
20260506172503 32 360 10.4 15.6 0.03 0.30 0.13 93 1020.1
20260506172002 32 360 8.7 13.0 0.03 0.30 0.13 92 1020.1
20260506171504 32 360 10.4 13.0 0.04 0.30 0.13 93 1019.8
20260506171008 32 360 7.8 14.8 0.04 0.30 0.13 93 1019.7
20260506170501 33 360 8.7 14.8 0.04 0.30 0.13 92 1019.4
20260506170004 33 360 7.8 13.0 0.04 0.29 0.12 92 1019.2
20260506165503 33 360 8.7 13.0 0.04 0.29 0.12 92 1019.3
20260506165003 33 360 9.6 13.0 0.05 0.29 0.12 92 1019.2
20260506164508 33 360 8.7 12.2 0.05 0.29 0.12 93 1019.1
20260506164008 33 360 7.0 12.2 0.05 0.28 0.11 93 1018.9
20260506163506 33 360 7.0 12.2 0.06 0.28 0.11 93 1018.9
20260506163006 33 360 7.0 11.3 0.06 0.28 0.11 93 1018.8
20260506162505 33 360 8.7 11.3 0.06 0.27 0.10 93 1018.8
20260506162003 33 360 6.1 13.0 0.06 0.27 0.10 93 1018.8
20260506161517 33 360 7.0 13.0 0.05 0.26 0.09 93 1018.7
20260506161003 33 360 7.8 13.0 0.05 0.26 0.09 93 1018.8
20260506160507 32 360 8.7 13.0 0.05 0.26 0.09 93 1018.6
20260506160004 32 360 8.7 12.2 0.04 0.25 0.08 93 1018.6
20260506155503 32 360 6.1 9.6 0.04 0.25 0.08 93 1018.6
20260506155001 33 360 6.1 9.6 0.03 0.24 0.07 93 1018.7
20260506154514 33 360 6.1 10.4 0.03 0.24 0.07 93 1018.7
20260506154006 32 360 7.8 10.4 0.02 0.23 0.06 93 1018.6
20260506153505 32 360 8.7 10.4 0.01 0.22 0.05 93 1018.5
20260506153004 32 360 4.3 7.8 0.01 0.22 0.05 93 1018.5
20260506152504 32 360 5.2 7.8 0.00 0.21 0.04 93 1018.6
20260506152012 32 360 3.5 5.2 0.00 0.21 0.04 93 1018.6
20260506151505 32 360 3.5 7.0 0.00 0.21 0.04 93 1018.6
20260506151003 31 360 3.5 7.8 0.00 0.21 0.04 93 1018.6
20260506150506 31 360 4.3 7.8 0.00 0.21 0.04 93 1018.6
20260506150004 31 360 3.5 7.8 0.00 0.21 0.04 93 1018.6
20260506145505 31 360 4.3 7.8 0.00 0.21 0.04 93 1018.7
20260506145005 31 360 5.2 7.8 0.00 0.21 0.04 93 1018.7
20260506144504 31 360 5.2 7.8 0.00 0.21 0.04 93 1018.7
20260506144008 31 360 4.3 9.6 0.00 0.21 0.04 93 1018.6
20260506143503 31 360 6.1 9.6 0.00 0.21 0.04 93 1018.6
20260506143009 31 360 7.0 9.6 0.00 0.21 0.04 93 1018.5
20260506142507 31 360 5.2 9.6 0.00 0.21 0.04 93 1018.6
20260506142011 31 360 6.1 10.4 0.00 0.21 0.04 93 1018.6
20260506141508 31 360 7.0 10.4 0.00 0.21 0.04 93 1018.5
20260506141007 30 360 6.1 10.4 0.00 0.21 0.04 93 1018.6
20260506140504 30 360 7.8 11.3 0.00 0.21 0.04 93 1018.6
20260506140008 30 360 7.8 11.3 0.00 0.21 0.04 93 1018.6
20260506135504 30 360 7.8 11.3 0.00 0.21 0.04 93 1018.6
20260506135003 30 360 7.8 11.3 0.00 0.21 0.04 93 1018.4
20260506134508 30 360 7.0 11.3 0.00 0.21 0.04 93 1018.3
20260506134006 31 360 7.8 10.4 0.00 0.21 0.04 93 1018.3
20260506133504 30 360 7.8 12.2 0.00 0.21 0.04 93 1018.3
20260506133006 30 360 7.0 12.2 0.00 0.21 0.04 93 1018.2
20260506132509 31 360 8.7 12.2 0.00 0.21 0.04 93 1018.0
20260506132009 31 360 3.5 10.4 0.00 0.21 0.04 93 1018.0
20260506131532 31 360 5.2 10.4 0.00 0.21 0.04 93 1018.1
20260506131006 30 360 7.0 11.3 0.00 0.21 0.04 93 1017.8
20260506130507 30 360 6.1 15.6 0.00 0.21 0.04 93 1017.7
20260506130008 31 360 9.6 15.6 0.00 0.21 0.04 93 1017.6
20260506125502 31 360 11.3 14.8 0.00 0.21 0.04 93 1017.6
20260506125003 31 360 7.0 12.2 0.00 0.21 0.04 93 1017.4
20260506124509 31 360 8.7 12.2 0.00 0.21 0.04 93 1017.3
20260506124008 31 360 7.0 10.4 0.00 0.21 0.04 93 1017.0
20260506123503 31 360 7.0 11.3 0.00 0.21 0.04 93 1016.8
20260506123015 31 360 6.1 11.3 0.00 0.21 0.04 93 1017.0
20260506122508 31 360 8.7 11.3 0.00 0.21 0.04 93 1016.8
20260506122006 31 360 8.7 11.3 0.00 0.21 0.04 93 1016.7
20260506121507 31 360 7.8 11.3 0.00 0.21 0.04 93 1016.6
20260506121008 31 360 7.0 11.3 0.00 0.21 0.04 93 1016.7
20260506120504 31 360 7.0 12.2 0.00 0.21 0.04 93 1016.6
20260506120017 31 360 6.1 12.2 0.00 0.21 0.04 93 1016.5
20260506115506 31 360 7.8 10.4 0.00 0.21 0.04 93 1016.4
20260506115005 31 360 5.2 9.6 0.00 0.21 0.04 93 1016.3
20260506114511 32 360 6.1 9.6 0.00 0.21 0.04 93 1016.3
20260506114007 32 360 4.3 7.8 0.00 0.21 0.04 93 1016.1
20260506113504 32 360 2.6 7.0 0.00 0.21 0.04 93 1016.0
20260506113012 32 360 3.5 7.0 0.00 0.21 0.04 93 1016.0
20260506112510 32 360 3.5 7.0 0.00 0.21 0.04 93 1016.2
20260506112007 32 360 3.5 7.0 0.00 0.21 0.04 93 1016.2
20260506111510 32 360 4.3 7.0 0.00 0.21 0.04 93 1016.2
20260506111010 31 360 4.3 7.0 0.00 0.21 0.04 93 1016.2
20260506110507 31 360 3.5 5.2 0.00 0.21 0.04 92 1016.1
20260506110020 31 360 3.5 5.2 0.00 0.21 0.04 92 1016.1
20260506105504 31 360 2.6 7.8 0.00 0.21 0.04 92 1016.0
20260506105007 31 360 3.5 7.8 0.00 0.21 0.04 92 1015.9
20260506104512 32 360 4.3 7.8 0.00 0.21 0.04 92 1015.8
20260506104006 32 360 4.3 7.8 0.00 0.21 0.04 92 1015.8
20260506103507 32 360 3.5 7.8 0.00 0.21 0.04 92 1015.8
20260506103029 32 360 3.5 9.6 0.00 0.21 0.04 92 1015.9
20260506102508 32 360 4.3 10.4 0.00 0.21 0.04 92 1015.8
20260506102010 32 360 6.1 10.4 0.00 0.21 0.04 92 1015.7
20260506101524 32 360 4.3 7.8 0.00 0.21 0.04 92 1015.8
20260506101006 32 360 2.6 4.3 0.00 0.21 0.04 92 1015.7
20260506100511 32 360 1.7 2.6 0.00 0.21 0.04 92 1015.7
20260506100025 32 360 1.7 2.6 0.00 0.21 0.04 92 1015.7
20260506095510 32 360 0.0 1.7 0.00 0.21 0.04 92 1015.7
20260506095008 32 360 0.0 0.0 0.00 0.21 0.04 92 1015.7
20260506094518 32 360 0.0 0.0 0.00 0.21 0.04 92 1015.6
20260506094009 32 360 0.0 0.9 0.00 0.21 0.04 92 1015.6
20260506093507 32 360 0.0 0.9 0.00 0.21 0.04 92 1015.5
20260506093014 32 360 0.0 0.9 0.00 0.21 0.04 92 1015.5
20260506092510 32 360 0.0 0.0 0.00 0.21 0.04 92 1015.3
20260506092014 32 360 0.0 0.0 0.00 0.21 0.04 92 1015.4
20260506091522 32 360 0.0 0.0 0.00 0.21 0.04 92 1015.4
20260506091007 32 360 0.0 0.0 0.00 0.21 0.04 92 1015.4